ETH601 OMDB-HAAB

Flight info

Callsign ETH601
Flight time 3h 38m
Altitude 37000
Route ANVIX R401 GIDIS G783 UKRAG L710 KUKDI/N0471F360 B400 NODMA L702 ULALI T701 TORBA UB535 LAKBE LAKBE3A
Aircraft B38M/M-SDE1FGHILORVWXY/HB1

Departure

Time 2026-04-26 15:09
Airport Dubai International Airport (OMDB)

Arrival

Time 2026-04-26 18:47
Airport Addis Ababa Bole International Airport (HAAB)
Time Latitude Longitude Altitude Speed Heading
2026-04-26 14:55 25.25444 55.37613 24 ft 0 kts 31°
2026-04-26 14:59 25.25435 55.37606 27 ft 4 kts 33°
2026-04-26 14:59 25.25406 55.37583 25 ft 4 kts 43°
2026-04-26 14:59 25.25388 55.37561 26 ft 4 kts 60°
2026-04-26 14:59 25.25384 55.37552 29 ft 4 kts 71°
2026-04-26 15:00 25.25386 55.37525 24 ft 1 kts 122°
2026-04-26 15:04 25.25385 55.37528 24 ft 2 kts 122°
2026-04-26 15:04 25.25351 55.37590 26 ft 17 kts 121°
2026-04-26 15:04 25.25268 55.37739 25 ft 26 kts 122°
2026-04-26 15:05 25.25169 55.37914 25 ft 22 kts 122°
2026-04-26 15:05 25.25120 55.38001 24 ft 21 kts 121°
2026-04-26 15:05 25.25015 55.38164 24 ft 20 kts 158°
2026-04-26 15:05 25.24958 55.38158 26 ft 1 kts 203°
2026-04-26 15:06 25.24950 55.38154 25 ft 2 kts 206°
2026-04-26 15:06 25.24926 55.38138 26 ft 7 kts 214°
2026-04-26 15:06 25.24869 55.38094 26 ft 12 kts 212°
2026-04-26 15:06 25.24810 55.38025 27 ft 13 kts 283°
2026-04-26 15:07 25.24815 55.38013 27 ft 0 kts 297°
2026-04-26 15:08 25.24815 55.38012 27 ft 2 kts 297°
2026-04-26 15:08 25.24824 55.37995 27 ft 14 kts 299°
2026-04-26 15:08 25.25026 55.37624 29 ft 99 kts 301°
2026-04-26 15:09 25.25513 55.36732 70 ft 164 kts 300°
2026-04-26 15:09 25.26134 55.35636 909 ft 168 kts 301°
2026-04-26 15:09 25.26733 55.34549 1916 ft 167 kts 300°
2026-04-26 15:09 25.27375 55.33393 2462 ft 187 kts 301°
2026-04-26 15:10 25.28111 55.32068 2935 ft 217 kts 301°
2026-04-26 15:10 25.28650 55.31098 3467 ft 218 kts 300°
2026-04-26 15:10 25.29120 55.28965 4739 ft 225 kts 264°
2026-04-26 15:10 25.28589 55.27294 5609 ft 236 kts 249°
2026-04-26 15:11 25.27897 55.25630 6519 ft 239 kts 249°
2026-04-26 15:11 25.27197 55.23953 7410 ft 242 kts 249°
2026-04-26 15:11 25.26478 55.22239 8177 ft 251 kts 249°
2026-04-26 15:11 25.25739 55.20490 8284 ft 250 kts 249°
2026-04-26 15:12 25.24982 55.18754 8504 ft 256 kts 243°
2026-04-26 15:12 25.23703 55.17336 9201 ft 270 kts 213°
2026-04-26 15:12 25.21883 55.16735 10054 ft 282 kts 186°
2026-04-26 15:12 25.19889 55.17104 10621 ft 303 kts 158°
2026-04-26 15:13 25.18124 55.18436 11282 ft 315 kts 134°
2026-04-26 15:13 25.16916 55.20458 12099 ft 318 kts 117°
2026-04-26 15:13 25.15872 55.22629 12896 ft 323 kts 119°
2026-04-26 15:13 25.14806 55.24820 13721 ft 325 kts 119°
2026-04-26 15:14 25.13735 55.27037 14405 ft 330 kts 120°
2026-04-26 15:14 25.12645 55.29297 14774 ft 335 kts 120°
2026-04-26 15:14 25.11553 55.31565 14828 ft 334 kts 120°
2026-04-26 15:14 25.10513 55.33857 14848 ft 334 kts 116°
2026-04-26 15:15 25.09552 55.36193 14860 ft 334 kts 116°
2026-04-26 15:15 25.08581 55.38527 14861 ft 334 kts 116°
2026-04-26 15:15 25.07608 55.40853 14863 ft 335 kts 116°
2026-04-26 15:15 25.06666 55.43282 15119 ft 353 kts 114°
2026-04-26 15:16 25.05690 55.45824 15492 ft 367 kts 114°
2026-04-26 15:16 25.04678 55.48445 16057 ft 372 kts 115°
2026-04-26 15:16 25.03656 55.51082 16730 ft 376 kts 115°
2026-04-26 15:16 25.02624 55.53747 17361 ft 380 kts 115°
2026-04-26 15:17 25.01445 55.56355 17986 ft 382 kts 124°
2026-04-26 15:17 25.00518 55.58008 18350 ft 384 kts 123°
2026-04-26 15:17 24.98688 55.61383 19048 ft 390 kts 123°
2026-04-26 15:17 24.97289 55.64003 19582 ft 393 kts 123°
2026-04-26 15:18 24.95902 55.66618 20097 ft 397 kts 123°
2026-04-26 15:18 24.94520 55.69219 20589 ft 400 kts 124°
2026-04-26 15:18 24.92904 55.71714 21082 ft 402 kts 130°
2026-04-26 15:18 24.91239 55.74202 21578 ft 406 kts 129°
2026-04-26 15:19 24.89547 55.76703 22067 ft 408 kts 135°
2026-04-26 15:19 24.87403 55.78678 22546 ft 399 kts 157°
2026-04-26 15:19 24.84801 55.79598 22955 ft 392 kts 178°
2026-04-26 15:19 24.82102 55.79579 23386 ft 388 kts 192°
2026-04-26 15:20 24.79497 55.78866 23782 ft 386 kts 204°
2026-04-26 15:20 24.76911 55.77994 24158 ft 391 kts 200°
2026-04-26 15:20 24.74290 55.77174 24576 ft 393 kts 200°
2026-04-26 15:20 24.71655 55.76329 24963 ft 396 kts 201°
2026-04-26 15:21 24.69003 55.75466 25354 ft 399 kts 201°
2026-04-26 15:21 24.66333 55.74591 25745 ft 402 kts 201°
2026-04-26 15:21 24.63646 55.73708 26125 ft 405 kts 201°
2026-04-26 15:21 24.60938 55.72817 26499 ft 408 kts 201°
2026-04-26 15:22 24.58209 55.71918 26865 ft 411 kts 201°
2026-04-26 15:22 24.55465 55.71015 27203 ft 414 kts 201°
2026-04-26 15:22 24.52692 55.70104 27523 ft 418 kts 201°
2026-04-26 15:22 24.49901 55.69187 27881 ft 420 kts 201°
2026-04-26 15:23 24.47088 55.68262 28225 ft 423 kts 201°
2026-04-26 15:23 24.44259 55.67333 28556 ft 426 kts 201°
2026-04-26 15:23 24.41408 55.66397 28852 ft 430 kts 201°
2026-04-26 15:23 24.38529 55.65454 28928 ft 433 kts 201°
2026-04-26 15:24 24.32770 55.63563 29330 ft 432 kts 201°
2026-04-26 15:24 24.29881 55.62615 29661 ft 435 kts 201°
2026-04-26 15:24 24.26969 55.61660 29944 ft 439 kts 201°
2026-04-26 15:25 24.24031 55.60698 30130 ft 443 kts 201°
2026-04-26 15:25 24.22072 55.60057 30312 ft 444 kts 201°
2026-04-26 15:25 24.18099 55.58755 30661 ft 448 kts 201°
2026-04-26 15:25 24.15105 55.57776 30904 ft 450 kts 201°
2026-04-26 15:26 24.12091 55.56790 31153 ft 453 kts 201°
2026-04-26 15:26 24.09064 55.55800 31392 ft 456 kts 201°
2026-04-26 15:26 24.06017 55.54805 31641 ft 458 kts 201°
2026-04-26 15:26 24.02957 55.53805 31894 ft 461 kts 202°
2026-04-26 15:27 23.99899 55.52862 32114 ft 464 kts 200°
2026-04-26 15:27 23.96771 55.51934 32361 ft 467 kts 201°
2026-04-26 15:27 23.93631 55.50995 32598 ft 469 kts 201°
2026-04-26 15:27 23.90475 55.50049 32824 ft 472 kts 201°
2026-04-26 15:28 23.87304 55.49099 33066 ft 474 kts 201°
2026-04-26 15:28 23.84115 55.48150 33295 ft 476 kts 201°
2026-04-26 15:28 23.80902 55.47195 33511 ft 479 kts 201°
2026-04-26 15:28 23.77690 55.46241 33799 ft 480 kts 201°
2026-04-26 15:29 23.74467 55.45286 34056 ft 480 kts 201°
2026-04-26 15:29 23.71242 55.44329 34308 ft 480 kts 201°
2026-04-26 15:29 23.64790 55.42417 34783 ft 481 kts 201°
2026-04-26 15:30 23.58334 55.40505 35306 ft 480 kts 201°
2026-04-26 15:30 23.55113 55.39559 35564 ft 481 kts 199°
2026-04-26 15:30 23.51775 55.39061 35824 ft 490 kts 184°
2026-04-26 15:31 23.48366 55.39492 36093 ft 498 kts 170°
2026-04-26 15:31 23.41636 55.41404 36475 ft 502 kts 167°
2026-04-26 15:31 23.38279 55.42462 36696 ft 502 kts 167°
2026-04-26 15:32 23.32706 55.44216 36910 ft 503 kts 167°
2026-04-26 15:32 23.24878 55.46676 36896 ft 500 kts 167°
2026-04-26 15:33 23.18234 55.48763 36859 ft 500 kts 167°
2026-04-26 15:33 23.11498 55.50875 36869 ft 501 kts 167°
2026-04-26 15:34 23.04851 55.52957 36864 ft 500 kts 167°
2026-04-26 15:34 22.98113 55.55026 36861 ft 500 kts 167°
2026-04-26 15:35 22.91456 55.57073 36868 ft 501 kts 167°
2026-04-26 15:35 22.84749 55.59134 36857 ft 501 kts 167°
2026-04-26 15:36 22.78043 55.61192 36852 ft 501 kts 167°
2026-04-26 15:36 22.71338 55.63247 36852 ft 501 kts 167°
2026-04-26 15:37 22.64626 55.65303 36848 ft 501 kts 167°
2026-04-26 15:37 22.57915 55.67359 36856 ft 501 kts 167°
2026-04-26 15:38 22.51194 55.69415 36855 ft 502 kts 167°
2026-04-26 15:38 22.44475 55.71469 36845 ft 502 kts 167°
2026-04-26 15:39 22.37761 55.73518 36845 ft 502 kts 167°
2026-04-26 15:39 22.32174 55.75224 36839 ft 502 kts 167°
2026-04-26 15:40 22.24274 55.77323 36826 ft 495 kts 179°
2026-04-26 15:40 22.17402 55.77978 36801 ft 496 kts 178°
2026-04-26 15:41 22.10557 55.78666 36848 ft 498 kts 178°
2026-04-26 15:41 22.03660 55.79351 36842 ft 498 kts 178°
2026-04-26 15:42 21.96758 55.80037 36833 ft 498 kts 178°
2026-04-26 15:42 21.89857 55.80722 36831 ft 498 kts 178°
2026-04-26 15:43 21.82954 55.81406 36826 ft 498 kts 178°
2026-04-26 15:44 21.72591 55.82432 36831 ft 498 kts 178°
2026-04-26 15:44 21.62229 55.83452 36826 ft 499 kts 177°
2026-04-26 15:45 21.51863 55.84469 36828 ft 499 kts 177°
2026-04-26 15:46 21.41498 55.85486 36829 ft 499 kts 177°
2026-04-26 15:46 21.36878 55.85938 36827 ft 499 kts 177°
2026-04-26 15:47 21.24223 55.87175 36828 ft 499 kts 177°
2026-04-26 15:48 21.17315 55.87849 36829 ft 498 kts 177°
2026-04-26 15:48 21.10413 55.88521 36825 ft 499 kts 177°
2026-04-26 15:49 21.04662 55.89080 36828 ft 499 kts 177°
2026-04-26 15:49 20.97746 55.89752 36835 ft 499 kts 177°
2026-04-26 15:50 20.90830 55.90424 36833 ft 499 kts 177°
2026-04-26 15:50 20.83910 55.91096 36830 ft 499 kts 177°
2026-04-26 15:51 20.76996 55.91766 36829 ft 499 kts 176°
2026-04-26 15:51 20.70075 55.92437 36836 ft 499 kts 177°
2026-04-26 15:52 20.63157 55.93107 36838 ft 499 kts 177°
2026-04-26 15:52 20.56237 55.93776 36830 ft 499 kts 176°
2026-04-26 15:53 20.49318 55.94445 36846 ft 500 kts 176°
2026-04-26 15:53 20.42389 55.95114 36843 ft 499 kts 176°
2026-04-26 15:54 20.35466 55.95782 36848 ft 500 kts 176°
2026-04-26 15:54 20.28549 55.96444 36848 ft 499 kts 176°
2026-04-26 15:55 20.21623 55.97103 36851 ft 500 kts 176°
2026-04-26 15:55 20.14696 55.97764 36853 ft 500 kts 176°
2026-04-26 15:56 20.07761 55.98327 36847 ft 498 kts 182°
2026-04-26 15:56 20.00829 55.98427 36851 ft 499 kts 180°
2026-04-26 15:57 19.93932 55.98610 36854 ft 499 kts 180°
2026-04-26 15:57 19.86993 55.98804 36855 ft 499 kts 180°
2026-04-26 15:58 19.80048 55.98999 36854 ft 499 kts 180°
2026-04-26 15:58 19.73106 55.99194 36850 ft 499 kts 180°
2026-04-26 15:59 19.66158 55.99388 36857 ft 500 kts 180°
2026-04-26 15:59 19.59205 55.99583 36854 ft 500 kts 180°
2026-04-26 16:00 19.52267 55.99574 36847 ft 496 kts 192°
2026-04-26 16:00 19.49010 55.98537 36859 ft 486 kts 210°
2026-04-26 16:00 19.46033 55.96845 36867 ft 488 kts 212°
2026-04-26 16:01 19.40067 55.93374 36876 ft 490 kts 213°
2026-04-26 16:01 19.34150 55.89817 36872 ft 489 kts 213°
2026-04-26 16:02 19.28244 55.86242 36873 ft 490 kts 213°
2026-04-26 16:02 19.22336 55.82667 36873 ft 489 kts 213°
2026-04-26 16:03 19.16423 55.79091 36879 ft 489 kts 213°
2026-04-26 16:03 19.10516 55.75523 36878 ft 489 kts 213°
2026-04-26 16:04 19.04602 55.71953 36886 ft 489 kts 213°
2026-04-26 16:04 18.98689 55.68388 36882 ft 489 kts 213°
2026-04-26 16:05 18.92773 55.64824 36890 ft 489 kts 213°
2026-04-26 16:05 18.86856 55.61262 36889 ft 489 kts 213°
2026-04-26 16:06 18.80944 55.57706 36891 ft 490 kts 213°
2026-04-26 16:06 18.75012 55.54141 36899 ft 491 kts 213°
2026-04-26 16:07 18.69120 55.50603 36901 ft 490 kts 213°
2026-04-26 16:07 18.63193 55.47046 36898 ft 490 kts 213°
2026-04-26 16:08 18.57262 55.43490 36897 ft 490 kts 213°
2026-04-26 16:08 18.51335 55.39939 36901 ft 490 kts 213°
2026-04-26 16:09 18.45407 55.36391 36903 ft 490 kts 213°
2026-04-26 16:09 18.39477 55.32845 36908 ft 490 kts 213°
2026-04-26 16:10 18.33545 55.29300 36903 ft 490 kts 213°
2026-04-26 16:10 18.27614 55.25762 36905 ft 490 kts 213°
2026-04-26 16:11 18.21691 55.22228 36907 ft 489 kts 212°
2026-04-26 16:11 18.15767 55.18698 36908 ft 490 kts 212°
2026-04-26 16:12 18.09547 55.15683 36925 ft 494 kts 206°
2026-04-26 16:12 18.00125 55.11442 36917 ft 493 kts 206°
2026-04-26 16:13 17.93816 55.08610 36918 ft 493 kts 206°
2026-04-26 16:13 17.87501 55.05777 36918 ft 493 kts 206°
2026-04-26 16:14 17.81182 55.02945 36920 ft 494 kts 206°
2026-04-26 16:15 17.71692 54.98696 36929 ft 494 kts 205°
2026-04-26 16:15 17.65379 54.95872 36943 ft 493 kts 205°
2026-04-26 16:16 17.55906 54.91638 36933 ft 493 kts 205°
2026-04-26 16:16 17.49582 54.88815 36946 ft 495 kts 205°
2026-04-26 16:17 17.43251 54.85991 36960 ft 495 kts 205°
2026-04-26 16:17 17.36914 54.83165 36953 ft 495 kts 205°
2026-04-26 16:18 17.27424 54.78914 36948 ft 494 kts 209°
2026-04-26 16:19 17.18747 54.73219 36932 ft 491 kts 215°
2026-04-26 16:20 17.10104 54.67437 36934 ft 492 kts 215°
2026-04-26 16:20 17.01473 54.61669 36917 ft 491 kts 215°
2026-04-26 16:21 16.95716 54.57824 36915 ft 491 kts 215°
2026-04-26 16:21 16.89952 54.53978 36891 ft 492 kts 215°
2026-04-26 16:22 16.84181 54.50127 36896 ft 493 kts 215°
2026-04-26 16:22 16.78448 54.46305 36887 ft 492 kts 215°
2026-04-26 16:23 16.72677 54.42460 36882 ft 492 kts 215°
2026-04-26 16:23 16.66908 54.38619 36879 ft 492 kts 215°
2026-04-26 16:24 16.61133 54.34777 36886 ft 492 kts 215°
2026-04-26 16:24 16.55355 54.30936 36882 ft 493 kts 215°
2026-04-26 16:25 16.49566 54.27090 36893 ft 493 kts 215°
2026-04-26 16:25 16.43776 54.23247 36894 ft 493 kts 215°
2026-04-26 16:26 16.38965 54.20055 36894 ft 493 kts 215°
2026-04-26 16:26 16.32205 54.15574 36896 ft 493 kts 215°
2026-04-26 16:27 16.26421 54.11742 36900 ft 493 kts 215°
2026-04-26 16:27 16.20630 54.07909 36924 ft 494 kts 215°
2026-04-26 16:28 16.14831 54.04074 36909 ft 494 kts 215°
2026-04-26 16:28 16.09035 54.00242 36916 ft 494 kts 214°
2026-04-26 16:29 16.03243 53.96417 36922 ft 493 kts 214°
2026-04-26 16:29 15.97448 53.92591 36927 ft 493 kts 214°
2026-04-26 16:30 15.91660 53.88773 36917 ft 494 kts 214°
2026-04-26 16:30 15.85903 53.84944 36931 ft 495 kts 215°
2026-04-26 16:31 15.80118 53.81076 36931 ft 494 kts 215°
2026-04-26 16:31 15.74336 53.77215 36924 ft 494 kts 215°
2026-04-26 16:32 15.69492 53.73982 36940 ft 494 kts 215°
2026-04-26 16:32 15.62771 53.69500 36934 ft 494 kts 215°
2026-04-26 16:33 15.56990 53.65648 36932 ft 494 kts 215°
2026-04-26 16:33 15.51197 53.61790 36918 ft 495 kts 214°
2026-04-26 16:34 15.45479 53.57831 36910 ft 492 kts 224°
2026-04-26 16:34 15.43249 53.55219 36921 ft 480 kts 242°
2026-04-26 16:34 15.41697 53.52175 36939 ft 479 kts 247°
2026-04-26 16:35 15.38771 53.45955 36938 ft 480 kts 249°
2026-04-26 16:35 15.35944 53.39688 36929 ft 480 kts 249°
2026-04-26 16:36 15.33144 53.33416 36924 ft 480 kts 249°
2026-04-26 16:36 15.30816 53.28200 36926 ft 480 kts 249°
2026-04-26 16:37 15.28017 53.21934 36934 ft 479 kts 249°
2026-04-26 16:37 15.25218 53.15675 36934 ft 479 kts 249°
2026-04-26 16:38 15.22418 53.09416 36935 ft 479 kts 249°
2026-04-26 16:38 15.19616 53.03160 36932 ft 479 kts 249°
2026-04-26 16:39 15.16811 52.96903 36928 ft 479 kts 249°
2026-04-26 16:39 15.14004 52.90647 36930 ft 479 kts 249°
2026-04-26 16:40 15.11195 52.84391 36936 ft 479 kts 249°
2026-04-26 16:40 15.08385 52.78139 36934 ft 479 kts 249°
2026-04-26 16:41 15.05575 52.71892 36935 ft 479 kts 249°
2026-04-26 16:41 15.02761 52.65642 36934 ft 479 kts 249°
2026-04-26 16:42 14.99947 52.59397 36931 ft 479 kts 249°
2026-04-26 16:42 14.97129 52.53150 36935 ft 479 kts 249°
2026-04-26 16:43 14.94311 52.46907 36933 ft 479 kts 249°
2026-04-26 16:43 14.91486 52.40655 36935 ft 479 kts 249°
2026-04-26 16:44 14.88666 52.34415 36935 ft 480 kts 249°
2026-04-26 16:44 14.85817 52.28175 36930 ft 480 kts 248°
2026-04-26 16:45 14.82950 52.21954 36936 ft 480 kts 248°
2026-04-26 16:45 14.80086 52.15734 36935 ft 479 kts 248°
2026-04-26 16:46 14.77218 52.09511 36937 ft 479 kts 248°
2026-04-26 16:46 14.74351 52.03297 36936 ft 479 kts 248°
2026-04-26 16:47 14.71481 51.97082 36936 ft 479 kts 248°
2026-04-26 16:47 14.68606 51.90858 36936 ft 481 kts 248°
2026-04-26 16:48 14.65738 51.84606 36935 ft 481 kts 248°
2026-04-26 16:48 14.62889 51.78357 36930 ft 481 kts 248°
2026-04-26 16:49 14.60036 51.72110 36934 ft 481 kts 248°
2026-04-26 16:49 14.57183 51.65867 36933 ft 481 kts 248°
2026-04-26 16:50 14.54327 51.59627 36936 ft 481 kts 248°
2026-04-26 16:50 14.51472 51.53390 36934 ft 481 kts 248°
2026-04-26 16:51 14.48612 51.47149 36933 ft 481 kts 248°
2026-04-26 16:51 14.45754 51.40917 36932 ft 481 kts 248°
2026-04-26 16:52 14.43377 51.35738 36932 ft 481 kts 248°
2026-04-26 16:52 14.40031 51.28454 36932 ft 480 kts 248°
2026-04-26 16:53 14.37167 51.22225 36933 ft 481 kts 248°
2026-04-26 16:53 14.34301 51.15997 36933 ft 481 kts 248°
2026-04-26 16:54 14.31435 51.09773 36933 ft 481 kts 248°
2026-04-26 16:54 14.28567 51.03551 36933 ft 480 kts 248°
2026-04-26 16:55 14.25695 50.97324 36933 ft 481 kts 248°
2026-04-26 16:55 14.22825 50.91109 36930 ft 481 kts 248°
2026-04-26 16:56 14.18507 50.81766 36930 ft 482 kts 248°
2026-04-26 16:57 14.15643 50.75573 36930 ft 482 kts 248°
2026-04-26 16:57 14.11305 50.66233 36926 ft 482 kts 245°
2026-04-26 16:58 14.08539 50.61181 36933 ft 484 kts 244°
2026-04-26 16:59 14.03129 50.51111 36925 ft 483 kts 244°
2026-04-26 17:00 13.96637 50.38986 36924 ft 483 kts 244°
2026-04-26 17:00 13.91767 50.29902 36927 ft 484 kts 244°
2026-04-26 17:01 13.88517 50.23844 36924 ft 483 kts 244°
2026-04-26 17:01 13.85266 50.17791 36924 ft 483 kts 244°
2026-04-26 17:02 13.82018 50.11745 36924 ft 482 kts 244°
2026-04-26 17:02 13.78773 50.05702 36928 ft 483 kts 244°
2026-04-26 17:03 13.75523 49.99644 36927 ft 484 kts 244°
2026-04-26 17:03 13.72292 49.93622 36924 ft 484 kts 244°
2026-04-26 17:04 13.69039 49.87567 36927 ft 484 kts 244°
2026-04-26 17:04 13.65784 49.81510 36926 ft 484 kts 244°
2026-04-26 17:05 13.62527 49.75455 36925 ft 484 kts 244°
2026-04-26 17:05 13.59274 49.69411 36921 ft 483 kts 244°
2026-04-26 17:06 13.56019 49.63369 36925 ft 483 kts 244°
2026-04-26 17:06 13.52765 49.57333 36927 ft 483 kts 244°
2026-04-26 17:07 13.49509 49.51296 36922 ft 483 kts 244°
2026-04-26 17:07 13.46257 49.45272 36926 ft 481 kts 244°
2026-04-26 17:08 13.43006 49.39254 36928 ft 482 kts 244°
2026-04-26 17:08 13.39749 49.33230 36928 ft 482 kts 244°
2026-04-26 17:09 13.37046 49.28233 36929 ft 482 kts 244°
2026-04-26 17:09 13.33241 49.21202 36925 ft 482 kts 244°
2026-04-26 17:10 13.30014 49.15162 36924 ft 482 kts 244°
2026-04-26 17:10 13.26791 49.09120 36925 ft 482 kts 244°
2026-04-26 17:11 13.23567 49.03085 36920 ft 482 kts 244°
2026-04-26 17:11 13.20364 48.97094 36923 ft 482 kts 244°
2026-04-26 17:12 13.15528 48.88054 36925 ft 482 kts 244°
2026-04-26 17:13 13.10688 48.79017 36923 ft 482 kts 244°
2026-04-26 17:14 13.05844 48.69982 36924 ft 482 kts 244°
2026-04-26 17:14 13.01000 48.60955 36924 ft 481 kts 244°
2026-04-26 17:15 12.96158 48.51941 36925 ft 481 kts 244°
2026-04-26 17:16 12.92925 48.45930 36923 ft 481 kts 244°
2026-04-26 17:16 12.89690 48.39918 36921 ft 482 kts 244°
2026-04-26 17:17 12.86456 48.33911 36925 ft 481 kts 244°
2026-04-26 17:17 12.83220 48.27905 36926 ft 481 kts 244°
2026-04-26 17:18 12.79982 48.21899 36925 ft 481 kts 244°
2026-04-26 17:18 12.76747 48.15904 36921 ft 480 kts 244°
2026-04-26 17:19 12.71899 48.06925 36922 ft 480 kts 244°
2026-04-26 17:19 12.68663 48.00936 36920 ft 480 kts 244°
2026-04-26 17:20 12.66522 47.96977 36921 ft 480 kts 244°
2026-04-26 17:20 12.62218 47.89023 36922 ft 480 kts 244°
2026-04-26 17:21 12.58983 47.83050 36920 ft 480 kts 244°
2026-04-26 17:21 12.55748 47.77080 36914 ft 479 kts 244°
2026-04-26 17:22 12.52512 47.71112 36917 ft 479 kts 244°
2026-04-26 17:22 12.49828 47.66164 36919 ft 479 kts 244°
2026-04-26 17:23 12.46589 47.60196 36914 ft 480 kts 244°
2026-04-26 17:23 12.43349 47.54230 36918 ft 479 kts 244°
2026-04-26 17:24 12.40655 47.48082 36891 ft 468 kts 264°
2026-04-26 17:24 12.40028 47.41478 36883 ft 467 kts 269°
2026-04-26 17:25 12.39538 47.34854 36919 ft 468 kts 269°
2026-04-26 17:25 12.39096 47.28220 36916 ft 467 kts 270°
2026-04-26 17:26 12.38660 47.21594 36918 ft 467 kts 270°
2026-04-26 17:26 12.38222 47.14970 36914 ft 467 kts 269°
2026-04-26 17:27 12.37784 47.08346 36917 ft 466 kts 269°
2026-04-26 17:27 12.37363 47.01732 36914 ft 466 kts 270°
2026-04-26 17:28 12.36946 46.95115 36912 ft 466 kts 270°
2026-04-26 17:28 12.36528 46.88513 36917 ft 465 kts 270°
2026-04-26 17:29 12.36180 46.83027 36914 ft 465 kts 270°
2026-04-26 17:29 12.35688 46.75311 36916 ft 465 kts 270°
2026-04-26 17:30 12.35266 46.68712 36916 ft 465 kts 270°
2026-04-26 17:30 12.34841 46.62108 36917 ft 465 kts 270°
2026-04-26 17:31 12.34416 46.55505 36919 ft 465 kts 269°
2026-04-26 17:31 12.33988 46.48909 36916 ft 465 kts 269°
2026-04-26 17:32 12.33559 46.42312 36918 ft 465 kts 269°
2026-04-26 17:32 12.33129 46.35717 36916 ft 465 kts 269°
2026-04-26 17:33 12.32698 46.29128 36917 ft 464 kts 269°
2026-04-26 17:34 12.32048 46.19251 36912 ft 464 kts 269°
2026-04-26 17:34 12.31612 46.12659 36913 ft 464 kts 269°
2026-04-26 17:35 12.31176 46.06073 36913 ft 464 kts 269°
2026-04-26 17:35 12.30737 45.99486 36914 ft 465 kts 269°
2026-04-26 17:36 12.30300 45.92941 36907 ft 464 kts 269°
2026-04-26 17:36 12.29858 45.86355 36909 ft 464 kts 269°
2026-04-26 17:37 12.29415 45.79767 36909 ft 464 kts 269°
2026-04-26 17:37 12.28970 45.73183 36907 ft 464 kts 269°
2026-04-26 17:38 12.28301 45.63306 36906 ft 464 kts 269°
2026-04-26 17:38 12.27852 45.56726 36905 ft 464 kts 269°
2026-04-26 17:39 12.27402 45.50136 36905 ft 464 kts 269°
2026-04-26 17:39 12.26951 45.43549 36906 ft 464 kts 269°
2026-04-26 17:40 12.26586 45.38079 36903 ft 464 kts 269°
2026-04-26 17:40 12.26096 45.30381 36906 ft 464 kts 269°
2026-04-26 17:41 12.25674 45.23798 36906 ft 464 kts 269°
2026-04-26 17:41 12.25249 45.17223 36900 ft 464 kts 269°
2026-04-26 17:42 12.24823 45.10640 36906 ft 464 kts 269°
2026-04-26 17:42 12.24396 45.04062 36911 ft 464 kts 269°
2026-04-26 17:43 12.23967 44.97486 36903 ft 463 kts 269°
2026-04-26 17:43 12.23537 44.90917 36904 ft 463 kts 269°
2026-04-26 17:44 12.23105 44.84343 36906 ft 464 kts 269°
2026-04-26 17:44 12.22672 44.77763 36906 ft 464 kts 269°
2026-04-26 17:45 12.22237 44.71191 36909 ft 464 kts 269°
2026-04-26 17:45 12.21800 44.64618 36901 ft 463 kts 269°
2026-04-26 17:46 12.21362 44.58046 36902 ft 463 kts 269°
2026-04-26 17:46 12.20923 44.51482 36903 ft 463 kts 269°
2026-04-26 17:47 12.20557 44.46029 36903 ft 463 kts 269°
2026-04-26 17:47 12.20043 44.38400 36903 ft 463 kts 269°
2026-04-26 17:48 12.19600 44.31844 36903 ft 462 kts 269°
2026-04-26 17:48 12.19155 44.25286 36903 ft 462 kts 269°
2026-04-26 17:49 12.18709 44.18730 36897 ft 462 kts 268°
2026-04-26 17:49 12.18262 44.12175 36901 ft 462 kts 268°
2026-04-26 17:50 12.17727 44.05633 36888 ft 464 kts 260°
2026-04-26 17:50 12.16644 44.02530 36885 ft 467 kts 243°
2026-04-26 17:50 12.14916 43.99706 36904 ft 471 kts 239°
2026-04-26 17:51 12.11294 43.94109 36912 ft 472 kts 238°
2026-04-26 17:51 12.07582 43.88563 36908 ft 473 kts 237°
2026-04-26 17:52 12.03852 43.83038 36906 ft 473 kts 237°
2026-04-26 17:52 12.00118 43.77515 36908 ft 472 kts 237°
2026-04-26 17:53 11.96383 43.71993 36907 ft 472 kts 237°
2026-04-26 17:54 11.90776 43.63710 36906 ft 473 kts 237°
2026-04-26 17:54 11.87096 43.58203 36907 ft 472 kts 238°
2026-04-26 17:55 11.83415 43.52603 36911 ft 472 kts 238°
2026-04-26 17:55 11.79774 43.47078 36913 ft 472 kts 238°
2026-04-26 17:56 11.76084 43.41483 36911 ft 472 kts 238°
2026-04-26 17:57 11.68773 43.30410 36911 ft 472 kts 238°
2026-04-26 17:57 11.65101 43.24853 36917 ft 472 kts 238°
2026-04-26 17:58 11.57763 43.13755 36922 ft 472 kts 238°
2026-04-26 17:59 11.52626 43.05234 36948 ft 471 kts 243°
2026-04-26 17:59 11.49450 42.99404 36927 ft 470 kts 243°
2026-04-26 18:00 11.46283 42.93577 36935 ft 470 kts 243°
2026-04-26 18:00 11.43114 42.87748 36936 ft 470 kts 243°
2026-04-26 18:01 11.39945 42.81924 36935 ft 470 kts 243°
2026-04-26 18:01 11.36776 42.76101 36939 ft 470 kts 243°
2026-04-26 18:02 11.34678 42.72249 36934 ft 470 kts 243°
2026-04-26 18:02 11.30451 42.64491 36941 ft 470 kts 243°
2026-04-26 18:03 11.27277 42.58669 36935 ft 470 kts 243°
2026-04-26 18:03 11.24106 42.52859 36927 ft 470 kts 243°
2026-04-26 18:04 11.20933 42.47046 36935 ft 469 kts 243°
2026-04-26 18:05 11.16173 42.38332 36928 ft 469 kts 243°
2026-04-26 18:05 11.12997 42.32524 36919 ft 470 kts 243°
2026-04-26 18:06 11.09815 42.26704 36914 ft 471 kts 243°
2026-04-26 18:06 11.06630 42.20887 36913 ft 470 kts 243°
2026-04-26 18:07 11.03331 42.15138 36900 ft 471 kts 237°
2026-04-26 18:07 10.99720 42.09576 36899 ft 471 kts 239°
2026-04-26 18:08 10.96161 42.03980 36906 ft 470 kts 239°
2026-04-26 18:08 10.92610 41.98387 36907 ft 470 kts 239°
2026-04-26 18:09 10.89060 41.92798 36907 ft 471 kts 238°
2026-04-26 18:09 10.86110 41.88156 36906 ft 470 kts 239°
2026-04-26 18:10 10.82562 41.82575 36911 ft 469 kts 239°
2026-04-26 18:10 10.79011 41.76991 36912 ft 470 kts 239°
2026-04-26 18:11 10.75462 41.71417 36903 ft 470 kts 239°
2026-04-26 18:11 10.71911 41.65840 36907 ft 469 kts 238°
2026-04-26 18:12 10.68355 41.60258 36915 ft 471 kts 238°
2026-04-26 18:12 10.64797 41.54676 36909 ft 471 kts 238°
2026-04-26 18:13 10.61238 41.49097 36916 ft 470 kts 238°
2026-04-26 18:13 10.57676 41.43512 36921 ft 471 kts 238°
2026-04-26 18:14 10.54116 41.37936 36919 ft 471 kts 238°
2026-04-26 18:14 10.50556 41.32363 36914 ft 469 kts 238°
2026-04-26 18:15 10.47005 41.26807 36918 ft 468 kts 238°
2026-04-26 18:15 10.43482 41.21298 36916 ft 469 kts 238°
2026-04-26 18:16 10.39935 41.15751 36913 ft 468 kts 238°
2026-04-26 18:16 10.34611 41.07435 36915 ft 467 kts 238°
2026-04-26 18:17 10.31070 41.01907 36919 ft 467 kts 238°
2026-04-26 18:17 10.27525 40.96374 36915 ft 467 kts 238°
2026-04-26 18:18 10.23971 40.90831 36927 ft 470 kts 237°
2026-04-26 18:18 10.20415 40.85287 36916 ft 468 kts 237°
2026-04-26 18:19 10.16862 40.79750 36924 ft 468 kts 237°
2026-04-26 18:19 10.13309 40.74215 36922 ft 468 kts 237°
2026-04-26 18:20 10.09756 40.68684 36920 ft 468 kts 237°
2026-04-26 18:20 10.06800 40.64085 36929 ft 468 kts 237°
2026-04-26 18:21 10.02643 40.57618 36932 ft 469 kts 237°
2026-04-26 18:21 9.99077 40.52076 36946 ft 469 kts 237°
2026-04-26 18:22 9.95537 40.46575 36953 ft 469 kts 237°
2026-04-26 18:22 9.91975 40.41043 36951 ft 468 kts 237°
2026-04-26 18:23 9.88413 40.35513 36966 ft 469 kts 237°
2026-04-26 18:23 9.84848 40.29982 36965 ft 468 kts 237°
2026-04-26 18:24 9.81283 40.24454 36981 ft 468 kts 237°
2026-04-26 18:24 9.77713 40.18919 37002 ft 469 kts 237°
2026-04-26 18:25 9.74137 40.13378 37002 ft 469 kts 237°
2026-04-26 18:25 9.70561 40.07840 37026 ft 470 kts 237°
2026-04-26 18:26 9.66993 40.02317 36918 ft 462 kts 237°
2026-04-26 18:26 9.65241 39.99604 36402 ft 459 kts 237°
2026-04-26 18:26 9.63514 39.96933 35722 ft 460 kts 237°
2026-04-26 18:27 9.61758 39.94215 35102 ft 460 kts 238°
2026-04-26 18:27 9.60009 39.91512 34633 ft 457 kts 238°
2026-04-26 18:27 9.58271 39.88824 34136 ft 455 kts 238°
2026-04-26 18:27 9.56541 39.86152 33528 ft 453 kts 238°
2026-04-26 18:28 9.54816 39.83486 33001 ft 451 kts 237°
2026-04-26 18:28 9.53100 39.80834 32483 ft 448 kts 237°
2026-04-26 18:28 9.51395 39.78201 31977 ft 446 kts 237°
2026-04-26 18:28 9.49697 39.75579 31493 ft 444 kts 237°
2026-04-26 18:29 9.48006 39.72969 30989 ft 443 kts 237°
2026-04-26 18:29 9.46318 39.70362 30481 ft 441 kts 237°
2026-04-26 18:29 9.44638 39.67769 29941 ft 440 kts 237°
2026-04-26 18:29 9.42960 39.65179 29398 ft 438 kts 237°
2026-04-26 18:30 9.41292 39.62606 28908 ft 435 kts 237°
2026-04-26 18:30 9.39637 39.60053 28443 ft 432 kts 236°
2026-04-26 18:30 9.37996 39.57523 28007 ft 429 kts 236°
2026-04-26 18:30 9.36360 39.55001 27540 ft 427 kts 236°
2026-04-26 18:31 9.34736 39.52495 27086 ft 424 kts 236°
2026-04-26 18:31 9.33123 39.50010 26605 ft 422 kts 236°
2026-04-26 18:31 9.31517 39.47534 26192 ft 420 kts 236°
2026-04-26 18:31 9.29918 39.45071 25755 ft 418 kts 235°
2026-04-26 18:32 9.28325 39.42618 25319 ft 416 kts 235°
2026-04-26 18:32 9.26740 39.40177 24891 ft 414 kts 235°
2026-04-26 18:32 9.25161 39.37745 24481 ft 413 kts 234°
2026-04-26 18:32 9.23585 39.35317 24037 ft 412 kts 234°
2026-04-26 18:33 9.22012 39.32898 23590 ft 411 kts 234°
2026-04-26 18:33 9.20444 39.30482 23061 ft 411 kts 235°
2026-04-26 18:33 9.18893 39.28096 22629 ft 409 kts 235°
2026-04-26 18:33 9.17318 39.25671 22239 ft 405 kts 235°
2026-04-26 18:34 9.15806 39.23346 21818 ft 395 kts 235°
2026-04-26 18:34 9.14319 39.21058 21432 ft 382 kts 235°
2026-04-26 18:34 9.12882 39.18849 21043 ft 371 kts 235°
2026-04-26 18:34 9.11469 39.16674 20705 ft 369 kts 236°
2026-04-26 18:35 9.10058 39.14505 20312 ft 368 kts 236°
2026-04-26 18:35 9.08652 39.12345 19944 ft 367 kts 236°
2026-04-26 18:35 9.07250 39.10189 19596 ft 366 kts 236°
2026-04-26 18:35 9.05852 39.08041 19234 ft 365 kts 236°
2026-04-26 18:36 9.04458 39.05899 18858 ft 364 kts 236°
2026-04-26 18:36 9.03068 39.03763 18497 ft 363 kts 236°
2026-04-26 18:36 9.01682 39.01634 18059 ft 363 kts 236°
2026-04-26 18:36 9.00281 38.99483 17443 ft 368 kts 236°
2026-04-26 18:37 8.98872 38.97320 17020 ft 367 kts 236°
2026-04-26 18:37 8.97474 38.95173 16637 ft 365 kts 237°
2026-04-26 18:37 8.96085 38.93039 16271 ft 362 kts 237°
2026-04-26 18:37 8.94703 38.90919 15904 ft 360 kts 237°
2026-04-26 18:38 8.93329 38.88812 15544 ft 358 kts 237°
2026-04-26 18:38 8.91965 38.86718 15178 ft 356 kts 237°
2026-04-26 18:38 8.90607 38.84635 14809 ft 354 kts 237°
2026-04-26 18:38 8.89258 38.82566 14447 ft 352 kts 237°
2026-04-26 18:39 8.87914 38.80504 14068 ft 350 kts 238°
2026-04-26 18:39 8.86577 38.78456 13641 ft 348 kts 237°
2026-04-26 18:39 8.85251 38.76423 13119 ft 346 kts 237°
2026-04-26 18:39 8.83926 38.74393 12513 ft 346 kts 237°
2026-04-26 18:40 8.82602 38.72364 11890 ft 345 kts 236°
2026-04-26 18:40 8.81278 38.70335 11291 ft 345 kts 236°
2026-04-26 18:40 8.79959 38.68309 10732 ft 345 kts 237°
2026-04-26 18:40 8.79090 38.66126 10625 ft 330 kts 262°
2026-04-26 18:41 8.79301 38.63878 10475 ft 319 kts 294°
2026-04-26 18:41 8.80543 38.62122 10416 ft 301 kts 323°
2026-04-26 18:41 8.82300 38.61143 10387 ft 281 kts 348°
2026-04-26 18:41 8.84158 38.60915 10400 ft 260 kts
2026-04-26 18:42 8.85907 38.61062 10438 ft 246 kts 11°
2026-04-26 18:42 8.87467 38.61595 10421 ft 229 kts 36°
2026-04-26 18:42 8.88747 38.62467 10384 ft 218 kts 36°
2026-04-26 18:42 8.89969 38.63305 10254 ft 206 kts 37°
2026-04-26 18:43 8.91124 38.64118 10034 ft 199 kts 38°
2026-04-26 18:43 8.92181 38.64916 9847 ft 181 kts 48°
2026-04-26 18:43 8.92845 38.65932 9676 ft 173 kts 63°
2026-04-26 18:43 8.93417 38.66993 9525 ft 171 kts 64°
2026-04-26 18:44 8.93997 38.68025 9408 ft 165 kts 62°
2026-04-26 18:44 8.94484 38.69052 9396 ft 160 kts 71°
2026-04-26 18:44 8.94832 38.70116 9277 ft 159 kts 75°
2026-04-26 18:44 8.95134 38.71191 9130 ft 157 kts 76°
2026-04-26 18:45 8.95407 38.72251 8975 ft 155 kts 76°
2026-04-26 18:45 8.95729 38.73292 8798 ft 157 kts 73°
2026-04-26 18:45 8.96067 38.74376 8645 ft 163 kts 76°
2026-04-26 18:45 8.96381 38.75463 8403 ft 161 kts 75°
2026-04-26 18:46 8.96696 38.76556 8160 ft 162 kts 74°
2026-04-26 18:46 8.97023 38.77637 7865 ft 159 kts 73°
2026-04-26 18:46 8.97323 38.78682 7681 ft 150 kts 74°
2026-04-26 18:46 8.97606 38.79632 7623 ft 127 kts 73°
2026-04-26 18:47 8.97812 38.80330 7625 ft 65 kts 73°
2026-04-26 18:47 8.97908 38.80595 7624 ft 33 kts 52°
2026-04-26 18:47 8.98009 38.80700 7624 ft 14 kts 44°
2026-04-26 18:47 8.98075 38.80749 7623 ft 10 kts
2026-04-26 18:48 8.98112 38.80699 7623 ft 10 kts 269°
2026-04-26 18:48 8.98098 38.80631 7624 ft 10 kts 252°
2026-04-26 18:48 8.98076 38.80561 7624 ft 11 kts 255°
2026-04-26 18:48 8.98055 38.80486 7624 ft 11 kts 253°
2026-04-26 18:49 8.98032 38.80409 7625 ft 11 kts 253°
2026-04-26 18:49 8.98010 38.80332 7626 ft 11 kts 253°
2026-04-26 18:49 8.97987 38.80253 7626 ft 12 kts 253°
2026-04-26 18:49 8.97994 38.80173 7625 ft 13 kts 324°
2026-04-26 18:50 8.98085 38.80147 7624 ft 15 kts 346°
2026-04-26 18:50 8.98185 38.80119 7623 ft 15 kts 345°
2026-04-26 18:50 8.98275 38.80081 7623 ft 14 kts 303°
2026-04-26 18:50 8.98264 38.79987 7623 ft 14 kts 252°
2026-04-26 18:51 8.98235 38.79894 7623 ft 13 kts 254°
2026-04-26 18:51 8.98220 38.79834 7623 ft 7 kts 256°
2026-04-26 18:51 8.98221 38.79806 7623 ft 3 kts 313°
2026-04-26 18:51 8.98242 38.79794 7623 ft 4 kts 335°
2026-04-26 18:52 8.98267 38.79785 7623 ft 3 kts 342°
2026-04-26 18:52 8.98276 38.79782 7623 ft 0 kts 342°